Pecos, TX

3:15 PM CDT on July 23, 2017 (GMT -0500)
Pecos Municipal

Weather History for KPEQ - December, 2012

Change the Weather History Date:

Saturday, December 1, 2012

  Actual Average Record
Temperature  
Mean Temperature 60 °F -  
Max Temperature 83 °F 64 °F 86 °F (1970)
Min Temperature 36 °F 29 °F 15 °F (1957)
Degree Days  
Heating Degree Days 6    
Growing Degree Days 10 (Base 50)    
Moisture  
Dew Point 28 °F    
Average Humidity 36    
Maximum Humidity 62    
Minimum Humidity 15    
Precipitation  
Precipitation 0.00 in - - ()
Sea Level Pressure  
Sea Level Pressure 30.04 in    
Wind  
Wind Speed 5 mph (WSW)    
Max Wind Speed 16 mph    
Max Gust Speed 20 mph    
Visibility 10 miles    
Events      
Averages and records for this station are not official NWS values.
T = Trace of Precipitation, MM = Missing Value Source: NWS Daily Summary

Daily Weather History Graph

Daily Weather History Graph

Search for Another Location

Airport or City:

Trip Planner

Search our weather history database for the weather conditions in past years. The results will help you decide how hot, cold, wet, or windy it might be!

Date:

Astronomy

Dec. 01, 2012 Rise Set
Actual Time 7:35 AM CST 5:50 PM CST
Civil Twilight 7:09 AM CST 6:17 PM CST
Nautical Twilight 6:39 AM CST 6:47 PM CST
Astronomical Twilight 6:09 AM CST 7:16 PM CST
Moon 8:39 PM CST (12/1) 9:52 AM CST (12/1)
Length of Visible Light 11h 07m
Length of Day
10h 15m
Waning Gibbous, 91% of the Moon is Illuminated
Dec 1
Waning Gibbous
Dec 6
Last Quarter
Dec 13
New
Dec 19
First Quarter
Dec 28
Full

Hourly Weather History & Observations

Time (CST) Temp. Windchill Dew Point Humidity Pressure Visibility Wind Dir Wind Speed Gust Speed Precip Events Conditions
12:15 AM 48.2 °F - 26.6 °F 43% 30.06 in 10.0 mi WSW 8.1 mph - N/A   Clear
12:35 AM 46.4 °F 42.9 °F 27.1 °F 47% 30.05 in 10.0 mi SW 6.9 mph - N/A   Clear
12:55 AM 47.7 °F - 28.4 °F 47% 30.05 in 10.0 mi WSW 9.2 mph - N/A   Clear
1:15 AM 52.0 °F - 28.2 °F 40% 30.05 in 10.0 mi SW 8.1 mph - N/A   Clear
1:35 AM 50.9 °F - 28.8 °F 43% 30.05 in 10.0 mi SSW 9.2 mph - N/A   Clear
1:55 AM 50.4 °F - 29.1 °F 44% 30.05 in 10.0 mi SW 8.1 mph - N/A   Clear
2:15 AM 48.7 °F - 28.9 °F 46% 30.05 in 10.0 mi SSW 6.9 mph - N/A   Clear
2:55 AM 45.9 °F - 28.9 °F 52% 30.04 in 10.0 mi Calm Calm - N/A   Clear
3:35 AM 41.4 °F - 26.6 °F 56% 30.04 in 10.0 mi Calm Calm - N/A   Clear
4:15 AM 40.3 °F 37.1 °F 25.9 °F 56% 30.04 in 10.0 mi SW 4.6 mph - N/A   Clear
4:35 AM 40.5 °F 38.4 °F 26.1 °F 57% 30.03 in 10.0 mi SSW 3.5 mph - N/A   Clear
4:55 AM 40.5 °F - 26.2 °F 57% 30.04 in 10.0 mi Calm Calm - N/A   Clear
5:15 AM 36.9 °F 33.1 °F 24.6 °F 61% 30.04 in 10.0 mi SE 4.6 mph - N/A   Clear
5:35 AM 37.4 °F 33.8 °F 24.8 °F 60% 30.04 in 10.0 mi South 4.6 mph - N/A   Clear
6:15 AM 37.4 °F 34.9 °F 24.6 °F 60% 30.06 in 10.0 mi NE 3.5 mph - N/A   Clear
6:35 AM 37.4 °F - 25.3 °F 62% 30.06 in 10.0 mi Calm Calm - N/A   Clear
6:55 AM 37.8 °F 34.2 °F 25.0 °F 60% 30.07 in 10.0 mi East 4.6 mph - N/A   Clear
7:15 AM 36.9 °F 34.3 °F 24.3 °F 60% 30.07 in 10.0 mi ESE 3.5 mph - N/A   Clear
7:35 AM 36.7 °F - 24.8 °F 62% 30.07 in 10.0 mi Calm Calm - N/A   Clear
7:55 AM 36.7 °F - 23.9 °F 60% 30.08 in 10.0 mi Calm Calm - N/A   Clear
8:15 AM 39.0 °F 36.8 °F 25.7 °F 59% 30.09 in 10.0 mi South 3.5 mph - N/A   Clear
8:35 AM 42.3 °F - 26.6 °F 54% 30.09 in 10.0 mi Calm Calm - N/A   Clear
9:15 AM 48.4 °F - 29.3 °F 48% 30.10 in 10.0 mi Calm Calm - N/A   Clear
9:35 AM 51.3 °F - 30.4 °F 45% 30.10 in 7.0 mi Calm Calm - N/A   Clear
9:55 AM 55.8 °F - 31.3 °F 39% 30.10 in 10.0 mi Calm Calm - N/A   Clear
10:15 AM 57.6 °F - 31.8 °F 38% 30.10 in 10.0 mi Calm Calm - N/A   Clear
10:35 AM 60.3 °F - 32.5 °F 35% 30.10 in 10.0 mi Calm Calm - N/A   Clear
10:55 AM 63.3 °F - 33.1 °F 32% 30.10 in 10.0 mi Calm Calm - N/A   Clear
11:15 AM 66.9 °F - 34.0 °F 30% 30.10 in 10.0 mi Calm Calm - N/A   Clear
11:35 AM 68.7 °F - 34.9 °F 29% 30.09 in 10.0 mi Calm Calm - N/A   Clear
11:55 AM 71.6 °F - 35.4 °F 27% 30.07 in 10.0 mi Calm Calm - N/A   Clear
12:15 PM 75.0 °F - 36.0 °F 24% 30.07 in 10.0 mi Calm Calm - N/A   Clear
12:35 PM 77.7 °F - 36.1 °F 22% 30.05 in 10.0 mi Calm Calm - N/A   Clear
1:15 PM 81.7 °F - 31.6 °F 16% 30.03 in 10.0 mi WSW 9.2 mph 19.6 mph N/A   Clear
1:35 PM 82.2 °F - 31.6 °F 16% 30.02 in 10.0 mi West 11.5 mph 18.4 mph N/A   Clear
2:15 PM 83.3 °F - 32.0 °F 16% 30.00 in 10.0 mi West 11.5 mph 17.3 mph N/A   Clear
2:35 PM 83.3 °F - 31.6 °F 15% 30.00 in 10.0 mi West 16.1 mph 19.6 mph N/A   Clear
2:55 PM 83.3 °F - 31.3 °F 15% 29.99 in 10.0 mi West 9.2 mph - N/A   Clear
3:15 PM 83.3 °F - 31.8 °F 16% 29.99 in 10.0 mi West 8.1 mph - N/A   Clear
3:35 PM 83.3 °F - 31.8 °F 16% 29.99 in 10.0 mi West 12.7 mph 18.4 mph N/A   Clear
4:15 PM 82.9 °F - 30.9 °F 15% 29.98 in 10.0 mi West 15.0 mph - N/A   Clear
4:35 PM 82.2 °F - 30.9 °F 16% 29.99 in 10.0 mi West 10.4 mph - N/A   Clear
5:15 PM 79.2 °F - 31.1 °F 17% 29.99 in 10.0 mi WNW 5.8 mph - N/A   Clear
5:35 PM 75.4 °F - 30.7 °F 19% 29.98 in 10.0 mi West 8.1 mph - N/A   Clear
5:55 PM 72.1 °F - 30.7 °F 22% 29.98 in 10.0 mi West 8.1 mph - N/A   Clear
6:15 PM 69.1 °F - 29.1 °F 23% 29.98 in 10.0 mi West 5.8 mph - N/A   Clear
6:35 PM 68.0 °F - 28.9 °F 23% 29.99 in 10.0 mi West 5.8 mph - N/A   Clear
6:55 PM 65.1 °F - 28.8 °F 26% 30.00 in 10.0 mi West 10.4 mph - N/A   Clear
7:35 PM 61.7 °F - 26.6 °F 26% 30.00 in 10.0 mi West 10.4 mph - N/A   Clear
7:55 PM 59.5 °F - 26.2 °F 28% 30.01 in 10.0 mi West 9.2 mph - N/A   Clear
8:15 PM 59.2 °F - 26.2 °F 28% 30.02 in 10.0 mi West 9.2 mph - N/A   Clear
8:35 PM 59.4 °F - 26.1 °F 28% 30.02 in 10.0 mi West 8.1 mph - N/A   Clear
8:55 PM 58.1 °F - 25.7 °F 29% 30.02 in 10.0 mi WSW 8.1 mph - N/A   Clear
9:15 PM 56.5 °F - 25.5 °F 30% 30.02 in 10.0 mi SSW 10.4 mph - N/A   Clear
9:35 PM 58.1 °F - 25.5 °F 29% 30.03 in 10.0 mi WSW 8.1 mph - N/A   Clear
9:55 PM 57.9 °F - 25.2 °F 28% 30.05 in 10.0 mi ESE 8.1 mph - N/A   Clear
10:15 PM 56.3 °F - 25.7 °F 31% 30.06 in 10.0 mi Calm Calm - N/A   Clear
10:35 PM 57.2 °F - 25.7 °F 30% 30.06 in 10.0 mi SW 3.5 mph - N/A   Clear
10:55 PM 52.5 °F - 25.2 °F 35% 30.06 in 10.0 mi Calm Calm - N/A   Clear
11:15 PM 49.5 °F - 24.8 °F 38% 30.06 in 10.0 mi South 3.5 mph - N/A   Clear
11:35 PM 51.4 °F - 25.3 °F 36% 30.06 in 10.0 mi Calm Calm - N/A   Clear
11:55 PM 50.4 °F - 24.8 °F 37% 30.06 in 10.0 mi SSW 4.6 mph - N/A   Clear